Location: Antioch
(38.0049°N, 121.8058°W)
Time: 23:01:32
(UTC+00:00)

Cosmos 1354 Rocket - Pass Details

Date: 26 May 2026
Orbit: 761 x 778 km, 74.0° (Epoch: 7 June)

Event Time Altitude Azimuth Distance (km) Brightness Sun altitude
Rises 03:39:46 0° 352° (N) 3,233 7.9 -4.3°
Reaches altitude 10° 03:42:27 10° 4° (N) 2,301 6.9 -4.8°
Maximum altitude 03:46:58 29° 64° (ENE) 1,369 5.1 -5.5°
Drops below altitude 10° 03:51:27 10° 124° (SE) 2,287 5.8 -6.3°
Enters shadow 03:52:04 - 127° (SE) 2,490 6.0 -6.4°
